GAOFEN 3 DEB

Satellite information

Favourite Embed

Satellite Type and Status

DEBRISIN ORBIT

Key statistics

Satellite GAOFEN 3 DEB at a glance.

Uptime

3314

Days in orbit

Revolutions

≈ 14.5

Per day

Orbit

SSO

Sun Synchronous Orbit

Inclination

98.4

Latest

Satellite identification and parameters

Extended collection of information and parameters for GAOFEN 3 DEB.

Object identification

Identified? True

Debris? True

Object name: GAOFEN 3 DEB

International designator: 2016-049E

Object number (NORAD): 42680

Object ID (CCSDS): 42680

Country: PEOPLES REPUBLIC OF CHINA (PRC)

Current information (Y/N): Y

RCS size: SMALL

Orbital parameters

Period: 99.271 minutes

Inclination: 98.437 deg

SMA: 7101.91 km

Apoapsis: 734.119 km

Periapsis: 713.431 km

RAAN: 253.294 deg

Eccentricy: 0.00145651

Argument of periapsis: 275.3972 deg

Mean anomaly: 84.5561 deg

Mean motion: 14.50574429 rev/day

Mean motion (dot): 0.00003382 rev/day2

B* drag term: 0.00087307572 1/REarth

Two-line elements (TLE)

Creation date: Aug. 31, 2025, 5:37 p.m.

Reference frame: TEME

Reference center: EARTH

Epoch: Aug. 31, 2025, 11:23 a.m. UTC

TLE line 0: 0 GAOFEN 3 DEB

TLE line 1: 1 42680U 16049E 25243.47459847 .00003382 00000-0 87308-3 0 9999

TLE line 2: 2 42680 98.4370 253.2940 0014565 275.3972 84.5561 14.50574429474324

Live tracking on map

Real-time ground track for satellite GAOFEN 3 DEB.

In-orbit conjunctions

A list of the most updated potential collisions computed for object GAOFEN 3 DEB.

Target Orbit TCA Probability of collision Miss distance Type
COSMOS 2251 DEB LEO 2025-05-08 13:17:44 0.0001436382 43.0 (m) DEBRIS
COSMOS 2251 DEB LEO 2025-03-06 05:40:05 0.00015665 74.0 (m) DEBRIS
JAWSAT SSO 2024-11-28 20:21:11 0.0002206355 511.0 (m) PAYLOAD

Associated space launch

Gaofen 3 is the first medium-sized and long life (8 years) civil satellite of China. The satellite is a C-band Synthetic Aperture Radar capable of up to 1m ground resolution.

GAOFEN 3 DEB was lifted into orbit during the mission ‘Long March 4C | Gaofen 3’, on board a Long March 4C space rocket.

The launch took place on Aug. 9, 2016, 10:55 p.m. from Launch Complex 9.

For more information about the launch, click the button.

Launch to space Long March 4C | Gaofen 3
Long March 4C | Gaofen 3

Agency: N/A

Status: Launch Successful

Launch date: Aug. 9, 2016, 10:55 p.m. UTC

Rocket: Long March 4C

Launch pad: Launch Complex 9

Location: Taiyuan Satellite Launch Center, People's Republic of China

...

Latest news about this satellite

There are no fresh news available about this satellite. Check back as we update our databases every day.


Newsletter sign-up

Weekly statistics, charts and insights to help you stay on top of the space industry.